Regional Weather Roundup
Issued by NWS Burlington, VT

Home | Current Version | Previous Version | Text Only | Print | Product List | Glossary On
Versions: 1 2 3 4 5 6 7 8 9 10 11 12 13 14 15 16 17 18 19 20 21 22 23 24 25 26 27 28 29 30 31 32 33 34 35 36 37 38 39 40 41 42 43 44 45 46 47 48 49 50
275
ASUS41 KBTV 192130
RWRBTV
VERMONT REGIONAL WEATHER ROUNDUP
NATIONAL WEATHER SERVICE BURLINGTON VT
400 PM EST MON FEB 19 2018

NOTE: "FAIR" INDICATES FEW OR NO CLOUDS BELOW 12,000 FEET WITH NO
SIGNIFICANT WEATHER AND/OR OBSTRUCTIONS TO VISIBILITY.

* THESE REPORTS ARE NOT UNDER NWS QUALITY CONTROL AND/OR DO NOT
  REPORT WEATHER SUCH AS PRECIPITATION AND FOG.

VTZ001>019-192200-
_____VERMONT_____


CITY           SKY/WX    TMP DP  RH WIND       PRES   REMARKS
BURLINGTON     CLOUDY    43  29  57 S13       30.20S
MONTPELIER     LGT RAIN  40  28  62 S13       30.25F
MORRISVILLE    CLOUDY    41  27  57 S13G20    30.19F
ST. JOHNSBURY*   N/A     43  28  55 MISG      30.21F
LYNDONVILLE*   CLOUDY    40  27  59 SE10      30.22F
MIDDLEBURY*    DRIZZLE   40  29  65 S7        30.23S
RUTLAND*       CLOUDY    44  32  62 S13       30.23F
SPRINGFIELD    CLOUDY    41  30  65 S7        30.28F
HIGHGATE*      CLOUDY    43  29  58 S12G24    30.18S
NEWPORT*       CLOUDY    41  27  56 S12G17    30.19F
BENNINGTON     LGT RAIN  41  32  70 S8        30.28S
ISLAND POND*     N/A     41 N/A N/A MISG        N/A
GALLUP MILLS*    N/A     39 N/A N/A MISG        N/A
UNION VILLAGE*   N/A     41 N/A N/A MISG        N/A
MT. MANSFIELD*   N/A     32 N/A N/A SW29        N/A  WCI  18

_____LAKE CHAMPLAIN_____


CITY           SKY/WX    TMP DP  RH WIND       PRES   REMARKS
BURTON ISLAND*   N/A     41  32  70 SW21G32     N/A  WCI  32
COLCHESTER RF*   N/A     39  32  75 S26         N/A  WCI  28
DIAMOND ISL*     N/A     43  32  65 SE22        N/A

$$

NYZ007-026>031-035-052-083-087-192200-
_____NORTHERN NEW YORK_____


CITY           SKY/WX    TMP DP  RH WIND       PRES   REMARKS
PLATTSBURGH    CLOUDY    42  29  59 S15       30.18R
SARANAC LAKE   MIX PCPN  37  35  92 SW7       30.11F WCI  32
MASSENA        LGT RAIN  41  36  82 CALM      30.12F
OGDENSBURG*    CLOUDY    42  34  73 S6        30.11S
POTSDAM*       CLOUDY    43  36  75 S3        30.10F
STARK FALLS*     N/A     39 N/A N/A SE13        N/A  WCI  32
WATERTOWN      LGT RAIN  41  39  93 S10G23    30.09F FOG
FT DRUM        CLOUDY    39  36  87 S13       30.10S WCI  32
ALBANY         LGT RAIN  41  33  73 S16G26    30.28F
GLENS FALLS    CLOUDY    41  31  67 S22G30    30.26F WCI  31

$$
NHZ002-005-011-192200-
_____NEW HAMPSHIRE_____


CITY           SKY/WX    TMP DP  RH WIND       PRES   REMARKS
LEBANON        CLOUDY    43  30  60 S10       30.27S
KEENE          CLOUDY    43  31  62 S9        30.32F
MT WASHINGTON  FOG       25  25 100 W54         N/A  VSB 0   WCI   3
PLYMOUTH       CLOUDY    45  29  53 S3        30.28F
WHITEFIELD     PTSUNNY   45  28  51 CALM      30.23F

$$

_____REGIONAL QUEBEC LOCATIONS_____


CITY           SKY/WX    TMP DP  RH WIND       PRES   REMARKS
MONTREAL       FLURRIES  41  28  60 S12       30.13F
QUEBEC CITY    PTSUNNY   39  23  52 W3        30.17S
SHERBROOKE     CLOUDY    43  25  49 S17G25    30.17F

_____REGIONAL ONTARIO LOCATIONS_____


CITY           SKY/WX    TMP DP  RH WIND       PRES   REMARKS
OTTAWA         LGT RAIN  37  32  81 SE6       30.09S

______KEY______
VSB  - VISIBILITY IN MILES
WCI  - WIND CHILL INDEX
HX   - HEAT INDEX
$$
NNNN




USA.gov is the U.S. government's official web portal to all federal, state and local government web resources and services.